Warsaw, Poland

10:00 AM CEST on June 29, 2017 (GMT +0200)
Okecie

Weather History for EPWA - November, 2013

Change the Weather History Date:

Friday, November 8, 2013

  Actual Average Record
Temperature  
Mean Temperature 48 °F -  
Max Temperature 50 °F 41 °F 60 °F (2015)
Min Temperature 46 °F 31 °F 28 °F (2002)
Degree Days  
Heating Degree Days 17    
Moisture  
Dew Point 48 °F    
Average Humidity 98    
Maximum Humidity 100    
Minimum Humidity 88    
Precipitation  
Precipitation 0.08 in 0.05 in - ()
Sea Level Pressure  
Sea Level Pressure 29.85 in    
Wind  
Wind Speed 5 mph ()    
Max Wind Speed 10 mph    
Max Gust Speed -    
Visibility 4.8 miles    
Events Rain    
Averages and records for this station are not official NWS values.
T = Trace of Precipitation, MM = Missing Value Source: Averaged Metar Reports

Daily Weather History Graph

Daily Weather History Graph

Search for Another Location

Airport or City:

Trip Planner

Search our weather history database for the weather conditions in past years. The results will help you decide how hot, cold, wet, or windy it might be!

Date:

Astronomy

Nov. 08, 2013 Rise Set
Actual Time 6:44 AM CET 3:54 PM CET
Civil Twilight 6:07 AM CET 4:31 PM CET
Nautical Twilight 5:26 AM CET 5:12 PM CET
Astronomical Twilight 4:47 AM CET 5:51 PM CET
Moon 11:28 AM CET (11/8) 8:54 PM CET (11/8)
Length of Visible Light 10h 24m
Length of Day
9h 10m
Waxing Crescent, 30% of the Moon is Illuminated
Nov 8
Waxing Crescent
Nov 10
First Quarter
Nov 17
Full
Nov 25
Last Quarter
Dec 3
New

Hourly Weather History & Observations

Time (CET) Temp. Windchill Dew Point Humidity Pressure Visibility Wind Dir Wind Speed Gust Speed Precip Events Conditions
12:00 AM 53.6 °F - 51.8 °F 94% 29.80 in 6.2 mi West 6.9 mph - N/A   Scattered Clouds
12:30 AM 53.6 °F - 50.0 °F 88% 29.80 in 6.2 mi West 10.4 mph - N/A   Scattered Clouds
1:00 AM 51 °F - 49 °F 88% 29.84 in 9 mi West 8.9 mph - -   Partly Cloudy
1:00 AM 51.8 °F - 50.0 °F 94% 29.83 in 6.2 mi West 9.2 mph - N/A   Mostly Cloudy
1:30 AM 50.0 °F - 50.0 °F 100% 29.83 in 6.2 mi WNW 10.4 mph - N/A   Mostly Cloudy
2:00 AM 50.0 °F - 48.2 °F 94% 29.83 in 6.2 mi WNW 6.9 mph - N/A   Mostly Cloudy
2:30 AM 50.0 °F - 48.2 °F 94% 29.83 in 6.2 mi WNW 3.5 mph - N/A   Mostly Cloudy
3:00 AM 50.0 °F - 48.2 °F 94% 29.83 in 6.2 mi West 3.5 mph - N/A   Mostly Cloudy
3:30 AM 48.2 °F - 46.4 °F 93% 29.83 in 6.2 mi WNW 3.5 mph - N/A   Mostly Cloudy
4:00 AM 49 °F - 47 °F 88% 29.87 in 9 mi Calm Calm - -   Mostly Cloudy
4:00 AM 48.2 °F - 46.4 °F 93% 29.83 in 6.2 mi Calm Calm - N/A   Mostly Cloudy
4:30 AM 48.2 °F - 48.2 °F 100% 29.83 in 6.2 mi Calm Calm - N/A   Mostly Cloudy
5:00 AM 48.2 °F - 48.2 °F 100% 29.83 in 6.2 mi South 2.3 mph - N/A   Mostly Cloudy
5:30 AM 48.2 °F - 48.2 °F 100% 29.83 in 6.2 mi South 3.5 mph - N/A   Mostly Cloudy
6:00 AM 48.2 °F - 48.2 °F 100% 29.83 in 6.2 mi South 4.6 mph - N/A   Mostly Cloudy
6:30 AM 48.2 °F - 46.4 °F 93% 29.83 in 6.2 mi SSE 3.5 mph - N/A   Mostly Cloudy
7:00 AM 48 °F - 46 °F 91% 29.86 in 6 mi Calm Calm - -   Overcast
7:00 AM 48.2 °F - 46.4 °F 93% 29.83 in 6.2 mi SSE 2.3 mph - N/A   Mostly Cloudy
7:30 AM 48.2 °F - 48.2 °F 100% 29.83 in 6.2 mi Calm Calm - N/A   Mostly Cloudy
8:00 AM 48.2 °F - 48.2 °F 100% 29.83 in 6.2 mi East 4.6 mph - N/A   Mostly Cloudy
8:30 AM 48.2 °F - 48.2 °F 100% 29.83 in 6.2 mi East 5.8 mph - N/A   Mostly Cloudy
9:00 AM 48.2 °F - 48.2 °F 100% 29.83 in 1.9 mi ENE 4.6 mph - N/A Rain Light Rain
9:30 AM 48.2 °F - 48.2 °F 100% 29.83 in 1.6 mi East 5.8 mph - N/A Rain Light Rain
10:00 AM 49 °F - 48 °F 96% 29.86 in 1 mi East 2.2 mph - - Rain Light Rain
10:00 AM 48.2 °F - 48.2 °F 100% 29.83 in 1.2 mi Variable 2.3 mph - N/A Rain Light Rain
10:30 AM 50.0 °F - 50.0 °F 100% 29.83 in 1.9 mi ENE 4.6 mph - N/A Rain Light Rain
11:00 AM 50.0 °F - 50.0 °F 100% 29.83 in 1.9 mi NE 4.6 mph - N/A Rain Light Rain
11:30 AM 50.0 °F - 50.0 °F 100% 29.83 in 2.5 mi ENE 5.8 mph - N/A   Mostly Cloudy
12:00 PM 50.0 °F - 50.0 °F 100% 29.83 in 3.1 mi NE 5.8 mph - N/A   Mostly Cloudy
12:30 PM 50.0 °F - 50.0 °F 100% 29.83 in 2.5 mi ENE 5.8 mph - N/A   Mostly Cloudy
1:00 PM 50 °F - 49 °F 96% 29.85 in 3 mi NNE 4.5 mph - - Rain Light Rain
1:00 PM 50.0 °F - 50.0 °F 100% 29.83 in 3.1 mi NNE 6.9 mph - N/A   Mostly Cloudy
1:30 PM 48.2 °F - 48.2 °F 100% 29.83 in 2.2 mi NNE 6.9 mph - N/A Rain Light Rain
2:00 PM 48.2 °F - 48.2 °F 100% 29.83 in 2.5 mi NE 8.1 mph - N/A Rain Light Rain
2:30 PM 48.2 °F - 48.2 °F 100% 29.86 in 5.0 mi NE 9.2 mph - N/A   Mostly Cloudy
3:00 PM 48.2 °F - 48.2 °F 100% 29.86 in 5.0 mi NE 9.2 mph - N/A   Mostly Cloudy
3:30 PM 48.2 °F - 48.2 °F 100% 29.86 in 6.2 mi NNE 8.1 mph - N/A   Mostly Cloudy
4:00 PM 47 °F - 47 °F 98% 29.90 in 3 mi NNE 6.7 mph - - Rain Light Rain
4:00 PM 46.4 °F 42.9 °F 46.4 °F 100% 29.89 in 3.1 mi NE 6.9 mph - N/A Rain Light Rain
4:30 PM 46.4 °F 42.9 °F 46.4 °F 100% 29.89 in 6.2 mi ENE 6.9 mph - N/A   Mostly Cloudy
5:00 PM 46.4 °F 42.4 °F 46.4 °F 100% 29.89 in 6.2 mi ENE 8.1 mph - N/A   Mostly Cloudy
5:30 PM 46.4 °F 42.9 °F 46.4 °F 100% 29.89 in 6.2 mi NE 6.9 mph - N/A   Mostly Cloudy
6:00 PM 46.4 °F 42.9 °F 46.4 °F 100% 29.89 in 6.2 mi NNE 6.9 mph - N/A   Mostly Cloudy
6:30 PM 46.4 °F 42.9 °F 46.4 °F 100% 29.89 in 6.2 mi NE 6.9 mph - N/A   Mostly Cloudy
7:00 PM 47 °F - 46 °F 95% 29.91 in 6 mi ENE 6.7 mph - -   Partly Cloudy
7:00 PM 46.4 °F 42.9 °F 46.4 °F 100% 29.89 in 6.2 mi ENE 6.9 mph - N/A   Mostly Cloudy
7:30 PM 46.4 °F 43.5 °F 46.4 °F 100% 29.89 in 6.2 mi East 5.8 mph - N/A   Mostly Cloudy
8:00 PM 46.4 °F - 46.4 °F 100% 29.89 in 6.2 mi Variable 2.3 mph - N/A   Mostly Cloudy
8:30 PM 46.4 °F 44.3 °F 46.4 °F 100% 29.89 in 6.2 mi ESE 4.6 mph - N/A   Mostly Cloudy
9:00 PM 46.4 °F - 46.4 °F 100% 29.89 in 5.0 mi Variable 2.3 mph - N/A   Mostly Cloudy
9:30 PM 46.4 °F - 46.4 °F 100% 29.89 in 3.1 mi Calm Calm - N/A Rain Light Rain
10:00 PM 47 °F - 46 °F 97% 29.91 in 3 mi East 2.2 mph - - Rain Light Rain
10:00 PM 46.4 °F - 46.4 °F 100% 29.89 in 3.1 mi Calm Calm - N/A   Mostly Cloudy
10:30 PM 46.4 °F - 46.4 °F 100% 29.89 in 2.5 mi Calm Calm - N/A   Mostly Cloudy
11:00 PM 46.4 °F 45.2 °F 46.4 °F 100% 29.89 in 2.5 mi East 3.5 mph - N/A   Mostly Cloudy
11:30 PM 46.4 °F 45.2 °F 46.4 °F 100% 29.86 in 2.2 mi East 3.5 mph - N/A   Mostly Cloudy